[[{"header":{"parameterUnit":"m.s-1","parameterCategory":1,"la1":30.2991,"la2":30.254,"lo1":-89.0895,"lo2":-89.0444,"dy":0.0017,"dx":0.0017,"nx":28,"ny":28,"refTime":"2023-08-18T09:00:00:Z","depth":0,"parameterNumber":2,"parameterNumberName":"U-component_of_WINDS"},"data":[0,0,0,0,0,0,0,0,0,0,0,0,0,0,0,0,0,0,0,0,0,0,0,0,0,0,0,0,0,0,0,0,0,0,0,0,0,0,0,0,0,0,0,0,0,0,0,0,0,0,0,0,0,0,0,0,0,0,4.1235,4.1235,0,4.1242,4.1242,4.1242,4.1115,4.1111,4.1108,4.1105,4.1113,4.1116,4.1119,0,0,0,0,0,0,0,0,0,0,0,0,0,4.1111,4.1114,4.1235,4.1235,4.1235,4.1242,4.1242,4.1242,4.1116,4.1111,4.1107,4.1103,4.1112,4.1116,4.112,0,0,0,0,0,0,0,0,0,0,0,0,0,4.1146,4.1115,4.1235,4.1173,4.1167,4.1242,4.1242,4.1242,4.1116,4.1111,4.1106,4.1101,4.111,4.1115,4.112,4.1255,0,0,4.1136,4.1138,0,0,0,0,0,0,0,0,4.1144,4.1151,4.1182,4.1177,4.1171,4.1172,4.1201,4.1246,4.1118,4.1136,4.1105,4.1099,4.1137,4.1139,4.1152,4.1255,4.1256,4.1136,4.1139,4.1142,4.1143,0,0,0,0,0,0,0,4.1142,4.115,4.1237,4.1182,4.1176,4.1144,4.1143,4.1209,4.1165,4.1134,4.1125,4.1127,4.1133,4.1147,4.1151,4.1256,4.1136,4.1141,4.1144,4.1146,4.1467,4.1472,0,0,0,0,0,0,4.1148,4.1148,4.1237,4.1238,4.1145,4.1151,4.115,4.1177,4.1164,4.1157,4.1131,4.1121,4.1141,4.1145,4.1151,4.1305,4.1142,4.1146,4.1149,4.1461,4.1468,4.1474,0,0,0,0,0,0,4.1146,4.1157,4.1237,4.1191,4.1198,4.1158,4.119,4.118,4.1194,4.1162,4.1154,4.1154,4.1137,4.1144,4.1229,4.1303,4.1149,4.1153,4.1455,4.1463,4.1471,4.1616,0,0,0,0,0,0,4.1143,4.1157,4.1208,4.1193,4.1201,4.1316,4.1195,4.1184,4.1203,4.119,4.1182,4.1175,4.1134,4.1222,4.1234,4.1308,4.1157,4.1448,4.1459,4.1468,4.1604,4.1628,4.1648,0,0,0,0,0,4.1139,4.1249,4.1211,4.1223,4.1264,4.132,4.1325,4.1275,4.121,4.126,4.1239,4.1175,4.1294,4.1232,4.1245,4.1321,4.1443,4.1456,4.1468,4.1594,4.1623,4.1648,0,0,0,0,0,0,4.1275,4.1246,4.1204,4.1313,4.132,4.1299,4.1361,4.1308,4.1334,4.132,4.1257,4.1256,4.1351,4.1345,4.1276,4.1449,4.1357,4.1372,4.1449,4.1476,4.1498,4.1496,4.1162,0,0,0,0,0,4.1318,4.1366,4.1338,4.1437,4.1443,4.1402,4.1424,4.1385,4.139,4.1392,4.1378,4.1385,4.1423,4.145,4.1484,4.1604,4.1599,4.1662,4.1684,4.1703,4.1716,4.1775,4.1802,4.1514,4.1514,4.1514,0,0,4.1407,4.1397,4.1431,4.1464,4.1465,4.1515,4.1405,4.1464,4.15,4.1401,4.1479,4.147,4.1474,4.1576,4.1621,4.1574,4.1794,4.1718,4.1733,4.1736,4.1791,4.1818,4.1842,4.1523,4.1521,4.152,0,0,4.1593,4.1592,4.1672,4.1675,4.1677,4.1649,4.1669,4.1656,4.1645,4.1723,4.1649,4.1692,4.1761,4.1765,4.1777,4.1965,4.1905,4.1978,4.2092,4.2151,4.2173,4.2193,4.2257,4.2281,4.1991,4.1992,4.1992,0,4.1702,4.1775,4.172,4.1783,4.1799,4.1712,4.1792,4.1798,4.1812,4.1824,4.1772,4.1854,4.1851,4.1952,4.1997,4.2011,4.203,4.1977,4.2175,4.2194,4.2212,4.2272,4.2296,4.2,4.1999,4.1998,4.1998,0,4.1908,4.196,4.2025,4.2039,4.2062,4.2134,4.2089,4.212,4.2079,4.2056,4.2136,4.2129,4.2158,4.218,4.2142,4.2275,4.2246,4.2186,4.2091,4.2248,4.2304,4.2326,4.2012,4.2009,4.2007,4.2005,0,0,4.2179,4.2161,4.2186,4.219,4.2186,4.2225,4.2292,4.232,4.2346,4.236,4.2412,4.2472,4.2416,4.2429,4.239,4.2443,4.2588,4.2375,4.2374,4.2412,4.2731,4.2774,4.2802,4.255,4.2554,4.2558,4.273,0,4.2357,4.2469,4.2422,4.2539,4.2584,4.2502,4.256,4.2564,4.2545,4.2581,4.256,4.2601,4.2525,4.2532,4.2581,4.256,4.265,4.2547,4.2597,4.2599,4.2595,4.2831,4.2877,4.304,4.2752,4.2755,4.2758,0,4.258,4.26,4.2721,4.2707,4.2724,4.2777,4.2798,4.2834,4.2836,4.2818,4.2833,4.2782,4.2846,4.2755,4.2841,4.2772,4.279,4.2783,4.2788,4.2787,4.2686,4.2835,4.3091,4.3114,4.2792,4.2789,4.2787,0,4.276,4.2819,4.2897,4.2904,4.2891,4.2929,4.2926,4.2923,4.2942,4.2962,4.2973,4.3,4.3014,4.3036,4.2993,4.2932,4.3085,4.2991,4.307,4.3071,4.3103,4.3101,4.3363,4.3121,4.3121,4.312,4.312,0,4.2962,4.3039,4.2978,4.3026,4.3109,4.3054,4.3138,4.3125,4.3123,4.3167,4.31,4.3142,4.3085,4.3122,4.3089,4.3164,4.3172,4.3158,4.3148,4.3162,4.3163,4.317,4.3156,4.3127,4.3125,4.3124,4.3123,0,4.3177,4.314,4.322,4.32,4.3197,4.3259,4.3241,4.3285,4.3261,4.3318,4.3328,4.3291,4.3331,4.3291,4.3329,4.3307,4.3406,4.3381,4.3405,4.3396,4.3476,4.3468,4.3749,4.3782,4.3523,4.3525,4.3528,0,4.3306,4.3362,4.3349,4.3373,4.3373,4.3413,4.3432,4.3381,4.3403,4.3409,4.3452,4.3486,4.351,4.3578,4.3554,4.3582,4.3555,4.3652,4.3559,4.3571,4.3553,4.3548,4.3552,4.367,4.3673,4.3675,4.3678,0,4.3538,4.3517,4.3547,4.357,4.3595,4.3611,4.3622,4.3646,4.3592,4.3621,4.3661,4.368,4.3718,4.3752,4.3773,4.3768,4.3714,4.3708,4.3726,4.374,4.375,4.3742,4.3452,4.37,4.3698,4.3696,4.3695,4.3694,4.3711,4.3757,4.3753,4.3788,4.3791,4.3803,4.3842,4.3823,4.3854,4.388,4.3849,4.3897,4.3896,4.3919,4.3921,4.3957,4.3916,4.3945,4.3952,4.3959,4.3969,4.3747,4.3962,4.3961,4.396,4.396,4.3959,0,4.3937,4.393,4.3963,4.398,4.4008,4.3955,4.3964,4.399,4.4033,4.4037,4.4062,4.4106,4.4139,4.4118,4.4146,4.4179,4.4154,4.4187,4.4183,4.4182,4.4006,4.3985,4.4206,4.4206,4.4206,4.4206,4.4206,4.4206,4.4057,4.4129,4.4108,4.4181,4.4174,4.422,4.4229,4.4239,4.4242,4.4294,4.432,4.4307,4.43,4.4327,4.4354,4.4347,4.4359,4.44,4.4384,4.4219,4.4195,4.4171,4.4151,4.4404,4.4404,4.4557,4.4558,4.4559]},{"header":{"parameterUnit":"m.s-1","parameterCategory":1,"la1":30.2991,"la2":30.254,"lo1":-89.0895,"lo2":-89.0444,"dy":0.0017,"dx":0.0017,"nx":28,"ny":28,"refTime":"2023-08-18T09:00:00:Z","depth":0,"parameterNumber":3,"parameterNumberName":"V-component_of_WINDS"},"data":[0,0,0,0,0,0,0,0,0,0,0,0,0,0,0,0,0,0,0,0,0,0,0,0,0,0,0,0,0,0,0,0,0,0,0,0,0,0,0,0,0,0,0,0,0,0,0,0,0,0,0,0,0,0,0,0,0,0,3.5368,3.5369,0,3.5457,3.5458,3.5459,3.5455,3.5453,3.5452,3.5451,3.5538,3.5542,3.5545,0,0,0,0,0,0,0,0,0,0,0,0,0,3.5187,3.519,3.5368,3.5369,3.537,3.5457,3.5458,3.546,3.5455,3.5453,3.5452,3.545,3.5537,3.5541,3.5545,0,0,0,0,0,0,0,0,0,0,0,0,0,3.527,3.5191,3.5367,3.5378,3.538,3.5457,3.5458,3.546,3.5455,3.5453,3.5451,3.545,3.5536,3.5541,3.5546,3.5617,0,0,3.5562,3.5564,0,0,0,0,0,0,0,0,3.5265,3.5276,3.5375,3.5378,3.538,3.5443,3.5427,3.5512,3.5456,3.5427,3.5451,3.5449,3.5508,3.5515,3.5536,3.5621,3.5624,3.5563,3.5566,3.5568,3.5569,0,0,0,0,0,0,0,3.5259,3.5272,3.5403,3.5377,3.538,3.5377,3.5386,3.5443,3.5477,3.5429,3.5429,3.544,3.5509,3.5531,3.5538,3.5626,3.5562,3.5567,3.557,3.5572,3.577,3.5772,0,0,0,0,0,0,3.5252,3.5268,3.54,3.5406,3.5317,3.5381,3.5392,3.5425,3.5476,3.5482,3.5441,3.5439,3.5523,3.5532,3.5541,3.5626,3.5568,3.5573,3.5576,3.5768,3.577,3.5773,0,0,0,0,0,0,3.5248,3.5264,3.5397,3.5337,3.5353,3.5387,3.5423,3.5427,3.545,3.5485,3.5491,3.5459,3.5522,3.5534,3.5598,3.5629,3.5575,3.558,3.5765,3.5769,3.5772,3.5796,0,0,0,0,0,0,3.5243,3.5262,3.5291,3.5337,3.5357,3.5453,3.5425,3.543,3.546,3.5458,3.5503,3.5509,3.5521,3.559,3.5603,3.5635,3.5584,3.5763,3.5767,3.5771,3.5793,3.58,3.5806,0,0,0,0,0,3.5236,3.5294,3.5292,3.5308,3.5393,3.5455,3.5466,3.5481,3.5462,3.549,3.5512,3.5507,3.5623,3.5596,3.5611,3.5645,3.5761,3.5766,3.577,3.579,3.5798,3.5805,0,0,0,0,0,0,3.5249,3.53,3.5299,3.5374,3.541,3.5454,3.549,3.549,3.5531,3.5527,3.5542,3.5553,3.5616,3.5637,3.5606,3.5715,3.5689,3.5697,3.5699,3.5707,3.5714,3.5707,3.5588,0,0,0,0,0,3.5261,3.5308,3.535,3.5411,3.543,3.5457,3.5484,3.5493,3.553,3.5545,3.5573,3.5608,3.5652,3.5681,3.5724,3.5796,3.5804,3.5826,3.5833,3.5838,3.5844,3.5881,3.5891,3.5788,3.5788,3.5788,0,0,3.5285,3.5319,3.5348,3.5415,3.5444,3.5491,3.547,3.5521,3.5555,3.5553,3.5615,3.5636,3.5676,3.5744,3.5775,3.5763,3.5874,3.5844,3.5848,3.5851,3.5887,3.5897,3.5905,3.5791,3.5791,3.579,0,0,3.5352,3.5384,3.5438,3.5468,3.5513,3.553,3.5543,3.5587,3.5601,3.5664,3.5662,3.5702,3.5779,3.5807,3.5832,3.5909,3.5904,3.5922,3.5956,3.5992,3.6,3.6007,3.6032,3.6042,3.5928,3.5928,3.5928,0,3.5376,3.5449,3.5465,3.5517,3.5545,3.5546,3.5599,3.5627,3.5683,3.5701,3.5688,3.5783,3.581,3.5883,3.5902,3.5922,3.5936,3.5917,3.5998,3.6005,3.6012,3.6036,3.6046,3.593,3.593,3.593,3.593,0,3.5475,3.5525,3.5563,3.5618,3.5651,3.5703,3.5725,3.5756,3.5761,3.5779,3.5841,3.5874,3.5923,3.5941,3.5946,3.6014,3.6005,3.5995,3.5969,3.6023,3.6046,3.6056,3.5933,3.5932,3.5931,3.5931,0,0,3.5554,3.5616,3.563,3.5654,3.5703,3.5741,3.5792,3.5841,3.5866,3.5904,3.5946,3.601,3.6,3.6027,3.6035,3.6067,3.6124,3.6052,3.6053,3.6063,3.6198,3.6205,3.6216,3.6121,3.6123,3.6125,3.6194,0,3.5625,3.5717,3.5733,3.5813,3.5858,3.5858,3.5902,3.5936,3.5954,3.5993,3.6012,3.6057,3.6041,3.6058,3.6089,3.611,3.6151,3.6105,3.6158,3.616,3.6147,3.6228,3.6236,3.63,3.6204,3.6205,3.6206,0,3.5721,3.5763,3.5847,3.5889,3.5908,3.5948,3.5993,3.6031,3.6068,3.6079,3.6109,3.6113,3.6163,3.6136,3.6205,3.6174,3.6196,3.6209,3.6212,3.6216,3.6186,3.6233,3.6321,3.633,3.6221,3.622,3.6219,0,3.5768,3.5845,3.5905,3.5926,3.5976,3.6003,3.6025,3.6061,3.6088,3.6127,3.6145,3.6188,3.6212,3.6244,3.6259,3.6238,3.6326,3.63,3.6334,3.6334,3.6352,3.635,3.6443,3.6368,3.6368,3.6368,3.6368,0,3.5845,3.5897,3.5926,3.5963,3.602,3.6036,3.6091,3.6112,3.6143,3.6182,3.6185,3.6222,3.624,3.6278,3.629,3.6343,3.6354,3.6362,3.6365,3.6362,3.636,3.6375,3.6371,3.6371,3.637,3.6369,3.6369,0,3.5907,3.5929,3.5994,3.6036,3.6048,3.6088,3.6123,3.6157,3.6175,3.6224,3.6237,3.6263,3.6309,3.6327,3.6382,3.639,3.6451,3.645,3.6439,3.6439,3.6471,3.6467,3.6576,3.659,3.6507,3.6508,3.6509,0,3.5954,3.5994,3.604,3.6067,3.609,3.6134,3.6162,3.6179,3.6208,3.6252,3.6281,3.6327,3.6364,3.6436,3.6459,3.65,3.65,3.6535,3.6506,3.6501,3.6498,3.6495,3.6498,3.654,3.6541,3.6541,3.6542,0,3.6035,3.6044,3.6086,3.6131,3.6165,3.6201,3.6236,3.6257,3.6279,3.6311,3.6358,3.6387,3.6443,3.6488,3.653,3.6551,3.6549,3.6551,3.6561,3.6557,3.6548,3.6552,3.6452,3.6548,3.6548,3.6547,3.6547,3.6547,3.609,3.6124,3.6162,3.6208,3.6236,3.6268,3.6303,3.6324,3.6364,3.6412,3.6419,3.6469,3.6503,3.656,3.6582,3.662,3.6611,3.6625,3.6628,3.6631,3.6633,3.6543,3.6628,3.6628,3.6628,3.6627,3.6627,0,3.617,3.6194,3.6236,3.6285,3.632,3.6318,3.6356,3.6385,3.6429,3.6462,3.6498,3.6551,3.6594,3.662,3.6662,3.6687,3.6687,3.6698,3.6695,3.6699,3.6639,3.6626,3.6697,3.6697,3.6697,3.6697,3.6697,3.6697,3.6216,3.6273,3.6286,3.6357,3.638,3.643,3.6452,3.648,3.6506,3.6566,3.6602,3.6619,3.6648,3.6693,3.6731,3.6737,3.6752,3.6763,3.6768,3.6711,3.6704,3.6697,3.6685,3.6766,3.6766,3.6825,3.6825,3.6826]}]]